This demonstration page uses our WeatherBlox Daily Observations layout. Learn more.

Left ArrowRight Arrow

Hourly Observations for April 1, 2017

Temp ( °F °C ) Dew Point ( °F °C ) Humidity (%) Winds ( mph kmh ) Pressure ( in mb ) Visibility ( mi km ) Precip ( " mm )
12:53 am 00:53 Clear 37 2.8 33 0.6 86 86 Calm 30.12 1020 10 16 0.00 0.00
1:53 am 01:53 Clear 32 0 30 -1.1 92 92 SE 3 6 30.11 1020 10 16 0.00 0.00
2:53 am 02:53 Clear 34 1.1 33 0.6 97 97 Calm 30.10 1019 10 16 0.00 0.00
3:53 am 03:53 Clear 34 1.1 32 0 92 92 ESE 6 9 30.07 1018 10 16 0.00 0.00
4:53 am 04:53 Clear 29 -1.7 28 -2.2 96 96 Calm 30.05 1018 10 16 0.00 0.00
5:53 am 05:53 Clear 29 -1.7 27 -2.8 92 92 Calm 30.01 1016 10 16 0.00 0.00
6:53 am 06:53 Clear 28 -2.2 27 -2.8 96 96 ESE 3 6 30.01 1016 9 14 0.00 0.00
7:53 am 07:53 Sunny 31 -0.6 29 -1.7 92 92 E 3 6 30.02 1017 10 16 0.00 0.00
8:53 am 08:53 Sunny 42 5.6 37 2.8 82 82 SW 8 13 30.00 1016 10 16 0.00 0.00
9:53 am 09:53 Sunny 51 10.6 34 1.1 52 52 SW 18 30 29.96 1015 10 16 0.00 0.00
10:53 am 10:53 Sunny 54 12.2 33 0.6 45 45 SW 24 39 29.94 1014 10 16 0.00 0.00
11:53 am 11:53 Sunny 53 11.7 34 1.1 48 48 SW 21 33 29.92 1013 10 16 0.00 0.00
12:53 pm 12:53 Sunny 55 12.8 35 1.7 47 47 SW 20 31 29.89 1012 10 16 0.00 0.00
1:53 pm 13:53 Sunny 58 14.4 32 0 38 38 SW 23 37 29.85 1011 10 16 0.00 0.00
2:53 pm 14:53 Sunny 62 16.7 30 -1.1 30 30 SW 25 41 29.79 1009 10 16 0.00 0.00
3:53 pm 15:53 Sunny 63 17.2 29 -1.7 28 28 SW 25 41 29.75 1008 10 16 0.00 0.00
4:53 pm 16:53 Sunny 65 18.3 27 -2.8 24 24 WSW 29 46 29.75 1008 10 16 0.00 0.00
5:53 pm 17:53 Sunny 63 17.2 25 -3.9 24 24 WSW 20 31 29.74 1007 10 16 0.00 0.00
6:53 pm 18:53 Sunny 61 16.1 29 -1.7 30 30 W 21 33 29.74 1007 10 16 0.00 0.00
7:53 pm 19:53 Clear 59 15 28 -2.2 31 31 WSW 22 35 29.74 1007 10 16 0.00 0.00
8:53 pm 20:53 Clear 56 13.3 33 0.6 42 42 W 20 31 29.75 1007 10 16 0.00 0.00
9:53 pm 21:53 Clear 52 11.1 33 0.6 49 49 WNW 20 31 29.77 1008 10 16 0.00 0.00
10:53 pm 22:53 Mostly Clear 49 9.4 32 0 52 52 WNW 16 26 29.80 1009 10 16 0.00 0.00
11:53 pm 23:53 Clear 49 9.4 27 -2.8 43 43 WNW 23 37 29.81 1010 10 16 0.00 0.00

Powered by AerisWeather